Regional Weather Roundup
Issued by NWS

Home | Current Version | Previous Version | Text Only | Print | Product List | Glossary On
Versions: 1 2 3 4 5 6 7 8 9 10 11 12 13 14 15 16 17 18 19 20 21 22 23 24 25 26 27 28 29 30 31 32 33 34 35 36 37 38 39 40 41 42 43 44 45 46 47 48 49 50
000
ASUS44 KMEG 241310
RWRTN
TENNESSEE HOURLY STATE WEATHER ROUNDUP
NATIONAL WEATHER SERVICE MEMPHIS TN
800 AM CDT TUE APR 24 2018

TNZ002-004-019-021-049-052-054-088>092-241400-
WEST TENNESSEE

CITY           SKY/WX    TMP DP  RH WIND       PRES   REMARKS
MEMPHIS INTL   FOG       56  56 100 W3        29.99R VSB 1/4
NWS MEMPHIS      N/A     56 N/A N/A MISG        N/A
JACKSON        FOG       55  55 100 NW7       29.97R VSB 1/2
DYERSBURG      CLOUDY    55  55 100 NW7       29.98R FOG
COVINGTON      CLOUDY    57  55  94 NW5       29.98R FOG
UNION CITY     CLOUDY    57  55  94 NW3       29.95S FOG
BOLIVAR        CLOUDY    57  55  94 CALM      29.96S
PARIS          FOG       55  55 100 W5        29.95R VSB 1/4
HUNTINGDON     CLOUDY    55  55 100 CALM      29.95R FOG
LEXINGTON      CLOUDY    55  55 100 CALM      29.94S FOG
SELMER         CLOUDY    54  54 100 VRB3      29.95R
SAVANNAH       CLOUDY    55  55 100 NW6       29.95R
$$

TNZ008-025-027-028-033-062-065-066-241400-
NORTH MIDDLE TENNESSEE

CITY           SKY/WX    TMP DP  RH WIND       PRES   REMARKS
NASHVILLE      CLOUDY    58  54  86 NW7       29.92R
PORTLAND       CLOUDY    55  55 100 N6        29.91R FOG
CLARKSVILLE    CLOUDY    57  53  86 NW6       29.92S
SMYRNA         CLOUDY    57  55  93 CALM      29.92R
COOKEVILLE     FOG       55  55 100 SW5       29.89S VSB 1
LIVINGSTON     CLOUDY    54  52  94 CALM      29.89S FOG
GALLATIN       CLOUDY    57  55  94 NW5       29.94R
CROSSVILLE     CLOUDY    53  52  96 S3        29.90R
ROCKWOOD       CLOUDY    54  52  94 CALM      29.90S
$$

TNZ061-075-076-078-094-096-097-241400-
SOUTH MIDDLE TENNESSEE

CITY           SKY/WX    TMP DP  RH WIND       PRES   REMARKS
LEWISBURG      CLOUDY    57  55  94 CALM      29.92R
FAYETTEVILLE   CLOUDY    57  57 100 CALM      29.91R
TULLAHOMA      CLOUDY    55  54  94 N5        29.91R
WINCHESTER     CLOUDY    57  55  94 NW3       29.91R
MCMINNVILLE    CLOUDY    55  55 100 W7        29.91R FOG
COLUMBIA       CLOUDY    57  57 100 CALM      29.91S
SHELBYVILLE    CLOUDY    57  55  94 NW3       29.91S
$$

TNZ017-018-042-046-047-241400-
NORTHEAST TENNESSEE

CITY           SKY/WX    TMP DP  RH WIND       PRES   REMARKS
TRI CITIES     PTSUNNY   58  49  72 NE9       29.91F
ELIZABETHTON   PTSUNNY   59  48  67 E9        29.91F
$$

TNZ012-013-036-069-073-074-241400-
CENTRAL EAST TENNESSEE

CITY           SKY/WX    TMP DP  RH WIND       PRES   REMARKS
KNOXVILLE      LGT RAIN  55  55 100 NE8       29.88F FOG
OAK RIDGE      CLOUDY    56  56 100 VRB3      29.90S
DOWNTOWN KNOXV PTSUNNY   55  55 100 CALM      29.90R FOG
GATLINBURG     PTSUNNY   57  54  88 VRB5      29.88S
MORRISTOWN     PTSUNNY   55  52  88 NE6       29.88S
JACKSBORO      MOSUNNY   54  54 100 SW3       29.94F FOG
$$

TNZ083-085-099-241400-
SOUTHEAST TENNESSEE

CITY           SKY/WX    TMP DP  RH WIND       PRES   REMARKS
CHATTANOOGA    PTSUNNY   59  55  87 N3        29.90R
DAYTON         CLOUDY    57  57 100 N3        29.89R
$$

SKY/WX REPORTED AS FAIR MEANS FEW OR NO CLOUDS BELOW
12 THOUSAND FEET.




USA.gov is the U.S. government's official web portal to all federal, state and local government web resources and services.